Wind_Speed
18 18 19 19 19 20 20 20 20 20 20 21 21 21 21 21 21 21 22 23 23 23 22 22 21 22 22 22 22 22 23 22 21 21 20 20 21 21 22 22 21 20 20
20 20 20 20 20 21 21 21 20 21 21 21 21 22 22 22 22 23 23 22 22 23 23 23 22 23 23 23 23 23 23 23 23 22 22 22 22 22 22 23 22 22 21
21 21 21 21 21 21 21 21 22 22 22 22 22 22 22 22 23 23 23 23 23 23 23 23 23 24 24 24 23 23 24 24 24 23 23 23 23 23 23 23 23 22 21
22 22 23 22 22 22 22 22 22 23 23 23 23 22 23 23 23 23 23 23 24 24 24 24 24 24 24 23 23 24 24 24 24 24 24 24 24 24 24 23 23 23 23
22 22 23 23 22 22 22 23 22 23 24 24 23 23 23 23 23 23 23 23 24 24 24 24 24 25 24 24 24 24 24 24 25 25 25 25 25 25 24 24 24 24 24
23 23 24 24 23 22 23 22 22 24 24 24 24 24 24 23 23 23 24 23 24 24 23 23 24 25 24 24 24 24 24 25 25 25 25 25 25 25 26 25 24 24 24
23 24 25 24 23 23 23 23 24 24 24 25 25 25 24 24 24 24 24 24 24 24 23 24 25 24 24 24 24 24 24 24 25 25 24 24 24 24 25 24 24 24 24
24 24 25 25 25 24 23 23 24 24 25 25 24 24 24 24 24 24 24 24 24 24 23 23 23 23 23 23 24 24 24 24 25 24 24 25 24 24 24 24 23 24 24
25 26 26 27 26 25 25 25 25 25 25 24 24 24 24 24 24 24 24 24 23 23 23 23 23 23 23 24 24 24 24 24 24 24 24 24 24 24 24 24 24 23 23
27 27 27 27 26 26 26 26 26 25 24 24 24 24 24 24 24 24 23 23 23 22 22 23 23 23 24 24 24 24 24 24 24 24 24 24 24 24 25 25 25 25 24
27 28 28 27 27 27 26 26 26 26 26 25 25 24 24 23 23 23 22 22 23 22 22 22 23 24 24 24 24 24 24 24 24 24 24 25 24 24 25 25 25 25 24
28 28 28 28 28 28 27 26 26 27 26 26 26 24 23 23 22 22 22 22 22 22 22 22 23 24 24 24 24 24 24 25 24 25 25 24 24 24 24 24 24 25 24
28 28 29 29 29 28 28 28 27 27 26 26 26 25 24 23 23 23 22 22 22 22 23 23 24 24 24 24 24 24 24 24 24 24 25 24 23 23 23 23 23 23 23
28 28 28 28 29 29 28 28 28 27 27 26 26 25 25 25 24 23 23 22 23 23 24 24 24 24 24 24 23 23 23 23 23 24 23 23 23 23 22 21 21 20 21
29 29 29 29 29 29 28 27 27 27 27 26 26 26 26 25 24 24 24 23 23 24 24 24 24 24 24 24 23 23 23 23 23 23 23 22 22 22 21 20 20 20 20
30 29 29 29 29 29 29 28 27 26 25 25 25 25 25 25 25 25 25 24 24 24 23 23 23 24 24 23 23 22 23 23 23 23 22 22 22 22 21 21 20 20 20
29 29 29 28 28 28 28 28 27 25 24 24 23 24 25 25 25 25 25 25 24 24 23 23 23 23 23 21 22 22 22 23 23 22 22 22 22 22 22 21 21 20 19
28 28 28 28 28 27 27 27 26 24 23 22 23 24 25 25 25 24 24 23 23 23 23 23 23 23 21 21 21 22 22 22 22 21 21 21 21 21 21 20 20 19 19
28 27 27 28 28 27 26 26 25 24 24 23 23 23 23 24 24 24 23 23 22 22 22 22 22 22 21 20 20 20 20 20 20 20 19 19 19 19 19 19 18 18 18
28 27 27 27 27 26 25 25 25 25 24 23 23 23 22 23 23 22 22 22 22 22 21 20 20 20 19 19 19 18 18 19 18 18 18 18 18 18 18 18 18 18 18
27 26 26 26 26 25 24 24 25 24 23 23 23 23 22 22 21 21 21 22 22 21 21 20 19 18 18 18 18 17 18 18 18 17 17 17 18 17 17 17 17 18 19
26 26 26 26 25 25 24 24 23 22 22 22 23 23 23 22 21 21 21 21 20 20 20 19 18 17 17 17 17 17 17 17 17 17 17 18 18 17 17 17 17 18 19
26 26 25 25 25 24 24 24 23 23 22 22 23 22 22 21 21 21 20 20 20 20 19 18 18 18 18 17 17 17 16 16 17 17 17 18 17 17 17 17 18 18 18
25 25 24 24 24 24 23 23 23 23 23 23 23 23 22 21 20 20 20 19 19 19 19 19 19 19 18 18 18 18 18 18 19 18 18 17 17 17 17 17 17 17 18
24 24 23 23 23 23 23 23 23 23 23 23 23 22 21 21 21 21 20 19 19 19 19 19 19 19 19 19 19 18 18 19 19 19 19 18 18 17 17 17 18 19 19
22 22 21 21 22 22 22 23 23 23 22 21 21 21 20 20 20 20 19 17 17 18 19 19 19 19 19 19 19 18 18 19 19 19 19 19 19 19 19 19 20 20 19
Wind_Direction
304 304 301 299 297 297 297 298 297 295 292 291 290 288 288 287 286 286 284 283 281 279 279 279 279 281 282 280 279 280 282 283 284 282 280 280 280 281 282 282 284 287 285
299 301 302 300 297 297 297 299 299 296 293 293 290 288 287 287 286 286 284 284 283 280 280 279 279 280 282 281 279 280 281 281 282 281 280 280 280 281 281 283 283 281 280
296 297 298 300 300 301 300 300 299 299 297 296 292 288 287 287 287 286 284 283 283 282 281 281 281 281 281 281 281 281 281 282 281 280 280 280 279 280 281 282 281 282 281
293 294 297 299 300 302 302 300 300 300 300 298 293 290 286 286 287 287 286 285 284 284 283 281 282 282 282 282 282 281 281 281 279 278 279 279 278 278 280 279 279 279 277
296 296 297 299 300 300 300 300 299 301 300 299 296 293 288 287 286 286 287 287 285 284 283 282 281 281 282 282 281 280 280 280 279 279 279 279 277 277 278 278 277 276 275
294 296 298 298 299 298 297 299 300 301 299 298 297 295 292 290 286 285 286 286 286 285 284 282 281 280 280 281 281 281 281 281 281 280 280 279 278 278 278 279 277 275 274
295 297 300 299 297 295 295 297 299 300 298 298 297 295 293 291 289 286 286 286 285 284 284 284 282 280 280 280 281 282 282 281 281 281 280 279 279 279 279 279 278 277 276
294 295 297 299 299 297 296 298 299 300 299 299 298 297 294 294 293 289 287 286 285 285 285 285 283 281 281 281 281 281 282 282 282 281 281 280 279 280 280 280 279 279 278
291 294 296 297 297 298 297 298 299 299 300 300 300 298 297 296 295 293 289 289 288 286 285 284 284 284 283 283 283 282 281 282 280 280 280 279 279 280 280 280 280 279 279
288 290 293 295 296 296 296 297 297 298 300 300 300 299 298 295 294 293 291 290 288 286 285 284 284 283 283 283 284 281 280 280 279 280 281 280 279 280 281 280 281 279 278
287 289 291 293 294 293 293 294 296 296 296 297 298 298 297 295 295 294 293 290 289 287 285 287 286 286 284 284 283 281 279 279 280 280 280 279 278 279 281 282 282 280 276
285 287 289 290 290 291 291 292 295 295 294 294 294 295 295 295 294 294 293 290 288 287 287 288 287 287 285 284 283 282 281 281 281 281 280 278 279 280 281 283 282 279 276
283 285 286 288 289 291 292 292 293 293 293 292 291 291 293 294 294 293 292 290 288 287 287 287 286 285 284 282 282 282 282 282 282 283 282 279 281 281 282 284 282 280 279
281 283 286 288 289 290 292 292 291 291 292 291 289 289 289 290 293 292 290 289 289 287 286 286 284 284 283 282 281 281 282 283 284 284 282 280 281 282 281 282 279 278 278
279 282 285 287 288 289 290 292 293 290 288 288 288 286 287 287 290 290 289 287 288 288 286 286 285 284 283 282 280 280 281 283 283 283 281 281 281 281 280 280 278 276 275
278 280 283 286 288 289 290 291 291 290 289 288 288 286 285 286 286 288 288 287 287 287 286 286 286 284 282 279 279 280 280 279 280 281 281 280 279 279 279 279 280 277 273
278 279 283 285 288 290 290 292 291 290 290 289 289 287 286 285 285 286 286 287 287 286 285 286 286 284 281 278 278 279 280 280 280 280 279 277 276 277 278 278 277 277 271
278 280 282 284 288 290 291 292 291 288 288 290 290 290 289 286 285 285 288 287 287 286 285 285 285 285 282 279 278 279 278 278 278 280 279 276 275 277 278 277 276 274 273
278 280 281 282 286 289 290 291 291 288 288 290 292 291 291 289 286 285 285 286 286 286 285 285 286 286 286 283 281 280 280 280 279 279 278 277 277 278 278 276 276 275 273
277 278 280 282 284 286 288 289 290 288 286 290 293 293 291 289 287 286 285 284 286 287 287 288 288 288 286 284 284 282 284 284 281 279 279 279 279 279 279 277 274 274 274
276 276 277 278 280 284 287 289 288 289 290 290 291 294 293 290 286 285 285 286 289 290 290 288 286 285 284 282 281 282 282 282 280 279 278 280 280 279 278 275 274 274 275
277 276 275 276 279 281 283 286 285 287 291 293 294 295 294 290 287 286 286 288 290 289 288 288 286 283 281 280 280 281 283 284 282 280 279 280 279 277 277 277 276 275 275
278 278 276 276 280 279 280 282 283 284 288 292 294 293 293 293 291 290 288 288 289 288 287 288 288 285 281 280 279 279 280 283 283 283 281 278 275 275 274 274 277 278 277
277 276 276 277 278 278 277 279 280 283 286 289 292 292 292 291 291 290 287 285 284 285 285 285 287 285 281 282 281 280 279 279 280 281 283 280 277 274 274 276 279 281 281
276 275 275 275 275 276 277 279 281 283 286 289 290 291 292 293 291 290 288 286 285 285 286 285 284 284 284 282 283 283 280 279 279 280 279 279 279 276 276 279 281 281 281
275 273 274 276 276 277 278 281 283 286 289 290 290 290 290 293 293 292 289 288 288 288 287 284 283 284 284 283 282 282 282 280 279 278 278 278 278 277 278 280 282 281 280
Height
5859 5857 5855 5853 5851 5850 5848 5847 5845 5844 5842 5841 5840 5838 5837 5836 5835 5834 5833 5832 5831 5831 5831 5831 5830 5830 5830 5829 5829 5829 5829 5828 5828 5828 5827 5827 5826 5826 5826 5825 5824 5824 5823
5854 5852 5851 5849 5847 5845 5843 5841 5840 5839 5837 5835 5834 5833 5831 5830 5829 5828 5827 5826 5825 5824 5824 5824 5824 5824 5823 5823 5822 5822 5822 5821 5821 5821 5821 5821 5821 5820 5820 5819 5819 5818 5818
5849 5847 5845 5844 5842 5840 5838 5837 5835 5833 5831 5830 5828 5826 5825 5824 5823 5822 5820 5819 5819 5818 5818 5817 5817 5817 5816 5816 5815 5815 5815 5815 5814 5814 5814 5814 5814 5814 5813 5813 5813 5812 5812
5844 5842 5840 5839 5837 5835 5833 5831 5829 5827 5825 5824 5822 5820 5819 5818 5817 5815 5814 5813 5812 5811 5811 5810 5810 5810 5809 5809 5808 5808 5808 5808 5808 5808 5808 5807 5807 5807 5807 5806 5806 5805 5805
5839 5837 5835 5833 5831 5829 5827 5825 5823 5821 5820 5818 5815 5813 5812 5811 5810 5809 5808 5807 5806 5805 5804 5803 5803 5803 5802 5802 5802 5801 5801 5801 5800 5800 5800 5800 5800 5800 5799 5799 5798 5798 5798
5834 5832 5830 5828 5825 5823 5822 5820 5817 5815 5814 5812 5810 5808 5806 5805 5804 5803 5801 5800 5799 5798 5797 5797 5796 5796 5795 5795 5794 5794 5794 5793 5793 5793 5792 5792 5792 5792 5792 5791 5790 5791 5791
5828 5826 5824 5821 5819 5818 5816 5814 5812 5810 5807 5805 5803 5802 5800 5799 5797 5796 5795 5794 5793 5792 5791 5790 5789 5788 5788 5787 5787 5787 5786 5786 5785 5785 5785 5784 5784 5784 5784 5783 5783 5783 5783
5821 5820 5818 5816 5814 5812 5810 5808 5806 5803 5801 5799 5797 5795 5794 5793 5791 5789 5788 5787 5786 5785 5784 5783 5782 5782 5781 5781 5780 5780 5779 5779 5778 5778 5778 5777 5777 5777 5776 5776 5776 5775 5776
5815 5814 5812 5810 5808 5805 5803 5802 5800 5797 5795 5793 5791 5790 5788 5786 5784 5783 5781 5780 5779 5778 5777 5776 5775 5775 5775 5774 5773 5773 5772 5772 5771 5770 5770 5770 5769 5769 5769 5769 5769 5768 5768
5809 5807 5806 5803 5801 5799 5797 5795 5793 5791 5789 5787 5785 5783 5781 5780 5778 5776 5775 5773 5772 5771 5770 5770 5769 5768 5768 5767 5766 5766 5765 5765 5764 5764 5763 5763 5762 5762 5762 5761 5761 5760 5760
5802 5800 5799 5797 5795 5793 5791 5789 5787 5785 5783 5781 5779 5777 5775 5773 5771 5770 5768 5767 5766 5765 5764 5763 5762 5761 5760 5760 5759 5759 5758 5757 5757 5757 5756 5756 5755 5755 5754 5754 5753 5752 5752
5795 5793 5792 5790 5787 5786 5783 5781 5780 5778 5776 5774 5773 5771 5768 5767 5765 5763 5761 5760 5759 5758 5757 5757 5756 5755 5754 5753 5752 5751 5751 5750 5750 5749 5749 5749 5748 5748 5747 5746 5744 5744 5743
5787 5786 5784 5783 5780 5778 5776 5775 5773 5771 5769 5767 5766 5764 5762 5761 5759 5757 5756 5754 5753 5752 5751 5750 5749 5748 5747 5746 5745 5744 5743 5743 5743 5742 5742 5742 5741 5741 5740 5739 5737 5737 5736
5778 5778 5777 5775 5773 5771 5769 5767 5765 5764 5762 5760 5759 5757 5756 5754 5752 5750 5749 5748 5746 5745 5744 5743 5741 5741 5740 5739 5738 5737 5737 5736 5736 5735 5735 5735 5734 5734 5733 5732 5731 5731 5731
5770 5770 5769 5768 5766 5765 5763 5760 5758 5756 5755 5753 5752 5750 5749 5748 5746 5744 5742 5741 5740 5738 5737 5736 5735 5733 5733 5732 5731 5731 5730 5730 5729 5729 5728 5728 5728 5727 5727 5726 5725 5725 5725
5762 5762 5761 5760 5759 5757 5756 5754 5751 5750 5747 5746 5744 5743 5742 5741 5739 5737 5735 5734 5733 5731 5730 5729 5727 5726 5725 5725 5724 5724 5723 5723 5722 5722 5722 5721 5721 5721 5720 5720 5719 5719 5718
5753 5753 5752 5752 5751 5749 5748 5746 5744 5742 5740 5739 5737 5735 5734 5733 5732 5730 5728 5727 5726 5724 5723 5722 5721 5719 5718 5717 5717 5717 5716 5716 5716 5715 5715 5715 5714 5714 5714 5714 5713 5713 5712
5745 5745 5744 5744 5743 5742 5740 5738 5737 5735 5734 5732 5731 5729 5727 5725 5724 5723 5721 5720 5719 5718 5716 5715 5714 5712 5711 5710 5710 5710 5710 5709 5709 5708 5708 5708 5708 5707 5707 5707 5707 5707 5707
5737 5737 5736 5736 5735 5734 5733 5731 5730 5728 5727 5726 5724 5723 5720 5719 5717 5716 5715 5713 5712 5711 5709 5707 5706 5705 5704 5704 5703 5703 5703 5703 5702 5702 5702 5701 5701 5701 5701 5701 5701 5701 5700
5729 5729 5729 5728 5727 5727 5725 5724 5723 5721 5720 5719 5718 5716 5714 5712 5711 5710 5708 5707 5706 5704 5703 5701 5700 5699 5698 5697 5697 5697 5697 5696 5696 5696 5696 5695 5695 5695 5695 5695 5695 5695 5695
5721 5721 5721 5720 5720 5719 5719 5717 5716 5715 5713 5712 5711 5709 5708 5706 5704 5703 5702 5700 5699 5698 5697 5696 5694 5693 5692 5691 5691 5691 5691 5691 5690 5690 5690 5690 5689 5689 5689 5689 5689 5689 5689
5713 5713 5713 5713 5713 5712 5711 5710 5709 5708 5707 5706 5704 5703 5701 5700 5698 5697 5696 5695 5693 5692 5691 5690 5689 5688 5687 5686 5686 5686 5685 5685 5685 5684 5684 5684 5684 5684 5684 5683 5683 5683 5683
5706 5706 5706 5706 5705 5704 5704 5703 5703 5702 5700 5699 5698 5696 5695 5693 5692 5691 5690 5688 5687 5686 5685 5684 5683 5683 5682 5681 5680 5680 5680 5680 5679 5679 5678 5678 5678 5678 5678 5678 5677 5677 5677
5698 5698 5698 5698 5698 5697 5697 5696 5695 5695 5693 5692 5691 5690 5688 5687 5686 5685 5683 5682 5681 5680 5680 5679 5678 5677 5677 5676 5675 5675 5674 5674 5674 5673 5673 5673 5673 5672 5672 5672 5672 5671 5671
5691 5691 5691 5691 5691 5690 5690 5689 5688 5687 5686 5685 5684 5683 5681 5680 5679 5678 5677 5676 5675 5675 5674 5673 5672 5671 5671 5670 5670 5669 5668 5668 5668 5667 5667 5667 5667 5667 5666 5666 5666 5665 5665
5685 5685 5685 5685 5684 5684 5683 5682 5681 5681 5680 5679 5677 5676 5675 5674 5673 5672 5671 5670 5670 5669 5668 5667 5666 5665 5665 5664 5663 5663 5662 5662 5662 5661 5661 5661 5661 5661 5660 5660 5660 5659 5659